Location: Unspecified
(48.8656°N, 0.0000°E)
Time: 15:00:08
(UTC+00:00)

Transit 2A Rocket - Pass Details

Date: 19 June 2019
Orbit: 588 x 915 km, 66.7° (Epoch: 16 July)

Event Time Altitude Azimuth Distance (km) Brightness Sun altitude
Rises 16:07:46 0° 316° (NW) 3,462 8.9 35.9°
Reaches altitude 10° 16:11:44 10° 342° (NNW) 2,460 7.9 35.3°
Maximum altitude 16:14:32 14° 11° (NNE) 2,155 7.3 34.8°
Drops below altitude 10° 16:17:14 10° 41° (NE) 2,352 7.3 34.4°
Sets 16:20:52 0° 68° (ENE) 3,197 7.7 33.8°
